#timestamp,LO_Frequency,Hit,StdDev 
1668801615.1,286046994.9,Y
1668801616.0,286046994.9,P
1668801635.8,286046999.0,N
1668801655.7,286046998.2,N
1668801675.5,286046998.3,N
1668801695.3,286046998.6,N
1668801715.2,286046996.5,N
1668801735.0,286046998.3,N
1668801735.9,286046998.3,N
1668801755.7,286047000.4,N
1668801775.6,286047002.3,N
1668801795.4,286046998.9,N
1668801815.3,286046999.0,N
1668801835.1,286047000.4,N
1668801855.8,286047001.2,N
1668801875.7,286046999.4,N
1668801895.5,286047000.8,N
1668801915.4,286047000.0,N
1668801935.2,286046999.7,N
1668801955.0,286047001.3,N
1668801955.9,286047001.3,N
1668801975.8,286047004.4,N
1668801995.6,286047003.9,N
1668802015.4,286047001.7,N
1668802035.3,286047000.3,N
1668802055.1,286047001.3,N
1668802075.9,286047000.6,N
1668802095.7,286047000.7,N
1668802115.5,286047000.9,N
1668802135.4,286047002.6,N
1668802155.2,286047002.4,N
1668802175.0,286047002.2,N
1668802175.9,286047002.2,N
1668802195.8,286047002.4,N
1668802215.6,286047001.6,N
1668802235.5,286047004.2,N
1668802255.3,286047002.6,N
1668802275.1,286047004.4,N
1668802295.9,286047001.3,N
1668802315.7,286047003.5,N
1668802335.5,286047003.2,N
1668802355.4,286047004.2,N
1668802375.2,286047004.1,N
1668802395.1,286047003.4,N
1668802396.0,286047003.4,N
1668802415.8,286047003.4,N
1668802435.6,286047002.5,N
1668802455.5,286047000.8,N
1668802475.3,286047000.1,N
1668802495.1,286047000.9,N
1668802515.9,286047001.1,N
1668802535.7,286046998.6,N
1668802555.6,286046998.9,N
1668802575.4,286047001.1,N
1668802595.2,286047000.5,N
1668802615.1,286047000.9,N
1668802616.0,286047000.9,N
1668802635.8,286047002.7,N
1668802655.6,286047002.0,N
1668802675.5,286046999.8,N
1668802695.3,286046998.3,N
1668802715.2,286046998.2,N
1668802735.9,286047000.6,N
1668802755.7,286046999.6,N
1668802775.6,286046997.3,N
1668802795.4,286046999.5,N
1668802815.2,286047000.4,N
1668802835.1,286047001.0,N
1668802836.0,286047001.0,N
1668802855.8,286046998.2,N
1668802875.7,286047000.1,N
1668802895.5,286047000.0,N
1668802915.3,286047003.9,N
1668802935.2,286047003.0,N
1668802955.9,286047005.8,Y
1668802975.7,286047005.4,P
1668802995.6,286047005.9,N
1668803015.4,286047004.1,N
1668803035.3,286047006.0,N
1668803055.1,286047005.6,N
1668803056.0,286047005.6,N
1668803075.8,286047006.0,Y
1668803095.7,286046998.1,P
1668803115.5,286047000.9,N
1668803135.3,286047000.9,N
1668803155.2,286047000.0,N
1668803175.0,286047001.2,N
1668803175.9,286047001.2,N
1668803195.8,286046998.4,N
1668803215.6,286046998.5,N
1668803235.4,286047001.2,N
1668803255.3,286047000.9,N
1668803275.1,286046998.6,N
1668803295.8,286046997.3,N
1668803315.7,286046997.0,N
1668803335.5,286046997.1,N
1668803355.4,286046997.5,N
1668803375.2,286046995.7,N
1668803395.0,286046993.6,N
1668803395.9,286046993.6,N
1668803415.8,286046993.7,N
1668803435.6,286046997.6,N
1668803455.4,286046996.6,N
1668803475.3,286046999.4,N
1668803495.1,286046997.1,N
1668803515.9,286046999.4,N
1668803535.7,286046999.3,N
1668803555.5,286047001.1,N
1668803575.4,286046996.8,N
1668803595.2,286046996.5,N
1668803615.0,286046998.3,N
1668803616.0,286046998.3,N
1668803635.8,286046999.0,N
1668803655.6,286046998.6,N
1668803675.5,286047001.2,N
1668803695.3,286046996.5,N
1668803715.1,286046997.2,N
1668803735.9,286046995.3,N
1668803755.7,286046999.5,N
1668803775.6,286046999.5,N
1668803795.4,286046996.7,N
1668803815.2,286046996.5,N
1668803835.1,286046998.8,N
1668803836.0,286046998.8,N
1668803855.8,286046998.3,N
1668803875.6,286046996.6,N
1668803895.5,286046998.7,N
1668803915.3,286046999.0,N
1668803935.2,286046998.6,N
1668803955.9,286046997.0,N
1668803975.7,286046996.6,N
1668803995.6,286046998.9,N
1668804015.4,286046998.1,N
1668804035.2,286046996.5,N
1668804055.1,286046997.7,N
1668804056.0,286046997.7,N
1668804075.8,286046996.4,N
1668804095.7,286046993.4,Y
1668804115.5,286046998.0,P
1668804135.3,286046997.0,P
1668804155.2,286047000.6,N
1668804175.0,286047000.4,N
1668804175.9,286047000.4,N
1668804195.8,286047000.1,N
1668804215.6,286047002.4,N
1668804235.4,286047002.8,N
1668804255.3,286047001.4,N
1668804275.1,286047002.2,N
1668804295.8,286047000.7,N
1668804315.7,286046998.1,N
1668804335.5,286046998.1,N
1668804355.4,286047001.0,N
1668804375.2,286047002.7,N
1668804395.0,286047002.6,N
1668804395.9,286047002.6,N
1668804415.8,286047000.6,N
1668804435.6,286047000.1,N
1668804455.4,286047001.0,N
1668804475.3,286047000.3,N
1668804495.1,286047001.1,N
1668804515.9,286046998.8,N
1668804535.7,286046999.1,N
1668804555.5,286047000.2,N
1668804575.4,286047002.7,N
1668804595.2,286047000.6,N
1668804615.0,286047000.1,N
1668804615.9,286047000.1,N
1668804635.8,286047000.2,N
1668804655.6,286047000.0,N
1668804675.5,286047002.3,N
1668804695.3,286047001.1,N
1668804715.1,286046999.6,N
1668804735.9,286046995.5,Y
1668804755.7,286046998.8,P
1668804775.5,286046998.4,N
1668804795.4,286046998.3,N
1668804815.2,286047000.8,N
1668804835.1,286046998.2,N
1668804836.0,286046998.2,N
1668804855.8,286046998.9,N
1668804875.6,286046998.3,N
1668804895.5,286046998.1,N
1668804915.3,286047001.2,N
1668804935.1,286046998.7,N
1668804955.9,286047001.1,N
1668804975.7,286046999.2,N
1668804995.6,286046999.5,N
1668805015.4,286046995.0,Y
1668805035.2,286046999.6,P
1668805055.1,286047001.2,P
1668805056.0,286047001.2,N
1668805075.8,286047001.1,N
1668805095.6,286047000.5,N
1668805115.5,286047000.4,N
1668805135.3,286046999.7,N
1668805155.2,286047001.9,N
1668805175.9,286047001.7,N
1668805195.7,286047001.4,N
